Time,TemperatureF,DewpointF,PressureIn,WindDirection,WindDirectionDegrees,WindSpeedMPH,WindSpeedGustMPH,Humidity,HourlyPrecipIn,Conditions,Clouds,dailyrainin,SoftwareType,DateUTC
2013-07-10 00:02:00,79.0,76.0,29.85,South,175,1.0,4.0,91,0.00,,,0.10,,2013-07-10 05:02:00,
2013-07-10 00:12:00,79.0,76.0,29.85,South,175,1.0,4.0,91,0.00,,,0.10,,2013-07-10 05:12:00,
2013-07-10 00:22:00,79.0,76.0,29.84,South,175,1.0,5.0,91,0.00,,,0.10,,2013-07-10 05:22:00,
2013-07-10 00:32:00,78.0,75.0,29.83,South,181,1.0,5.0,91,0.00,,,0.10,,2013-07-10 05:32:00,
2013-07-10 00:42:00,78.0,75.0,29.83,South,181,1.0,5.0,91,0.00,,,0.10,,2013-07-10 05:42:00,
2013-07-10 00:53:00,78.0,75.0,29.83,SSW,207,0.0,4.0,91,0.00,,,0.10,,2013-07-10 05:53:00,
2013-07-10 01:01:00,78.0,75.0,29.83,SSW,198,0.0,2.0,91,0.00,,,0.10,,2013-07-10 06:01:00,
2013-07-10 01:11:00,78.0,75.0,29.83,SSW,198,0.0,2.0,91,0.00,,,0.10,,2013-07-10 06:11:00,
2013-07-10 01:22:00,78.0,75.0,29.83,South,185,0.0,2.0,91,0.00,,,0.10,,2013-07-10 06:22:00,
2013-07-10 01:32:00,77.0,74.0,29.83,South,169,0.0,4.0,91,0.00,,,0.10,,2013-07-10 06:32:00,
2013-07-10 01:42:00,77.0,74.0,29.83,South,169,0.0,4.0,91,0.00,,,0.10,,2013-07-10 06:42:00,
2013-07-10 01:52:00,77.0,74.0,29.83,SW,217,0.0,4.0,91,0.00,,,0.10,,2013-07-10 06:52:00,
2013-07-10 02:01:00,77.0,74.0,29.82,SSE,166,0.0,4.0,91,0.00,,,0.10,,2013-07-10 07:01:00,
2013-07-10 02:11:00,77.0,74.0,29.82,SSE,166,0.0,4.0,91,0.00,,,0.10,,2013-07-10 07:11:00,
2013-07-10 02:22:00,77.0,74.0,29.82,South,174,0.0,3.0,91,0.00,,,0.10,,2013-07-10 07:22:00,
2013-07-10 02:33:00,77.0,74.0,29.82,SSW,207,0.0,3.0,91,0.00,,,0.10,,2013-07-10 07:33:00,
2013-07-10 02:43:00,77.0,74.0,29.82,SSW,207,0.0,3.0,91,0.00,,,0.10,,2013-07-10 07:43:00,
2013-07-10 02:53:00,77.0,74.0,29.82,South,175,1.0,4.0,92,0.00,,,0.10,,2013-07-10 07:53:00,
2013-07-10 03:01:00,77.0,74.0,29.81,South,183,0.0,3.0,92,0.00,,,0.10,,2013-07-10 08:01:00,
2013-07-10 03:11:00,77.0,74.0,29.81,South,183,0.0,3.0,92,0.00,,,0.10,,2013-07-10 08:11:00,
2013-07-10 03:23:00,76.0,74.0,29.80,West,281,0.0,4.0,92,0.00,,,0.10,,2013-07-10 08:23:00,
2013-07-10 03:33:00,76.0,74.0,29.81,SSW,196,1.0,3.0,92,0.00,,,0.10,,2013-07-10 08:33:00,
2013-07-10 03:42:00,76.0,74.0,29.81,SSW,196,1.0,3.0,92,0.00,,,0.10,,2013-07-10 08:42:00,
2013-07-10 03:53:00,77.0,74.0,29.80,SSW,198,0.0,2.0,92,0.00,,,0.10,,2013-07-10 08:53:00,
2013-07-10 04:02:00,76.0,74.0,29.80,South,177,0.0,3.0,92,0.00,,,0.10,,2013-07-10 09:02:00,
2013-07-10 04:12:00,76.0,74.0,29.80,South,177,0.0,3.0,92,0.00,,,0.10,,2013-07-10 09:12:00,
2013-07-10 04:22:00,76.0,74.0,29.79,South,188,0.0,4.0,93,0.00,,,0.10,,2013-07-10 09:22:00,
2013-07-10 04:32:00,76.0,74.0,29.80,SSE,162,0.0,3.0,93,0.00,,,0.10,,2013-07-10 09:32:00,
2013-07-10 04:42:00,76.0,74.0,29.80,SSE,162,0.0,3.0,93,0.00,,,0.10,,2013-07-10 09:42:00,
2013-07-10 04:53:00,75.0,73.0,29.80,South,172,0.0,3.0,93,0.00,,,0.10,,2013-07-10 09:53:00,
2013-07-10 05:01:00,75.0,73.0,29.80,SSW,213,0.0,2.0,94,0.00,,,0.10,,2013-07-10 10:01:00,
2013-07-10 05:13:00,75.0,73.0,29.80,SSW,213,0.0,2.0,94,0.00,,,0.10,,2013-07-10 10:13:00,
2013-07-10 05:23:00,75.0,73.0,29.80,NNW,345,0.0,2.0,94,0.00,,,0.10,,2013-07-10 10:23:00,
2013-07-10 05:32:00,75.0,73.0,29.79,NNW,345,0.0,0.0,93,0.00,,,0.10,,2013-07-10 10:32:00,
2013-07-10 05:50:00,-999.0,-99.9,29.79,NNW,345,0.0,0.0,-999,-99.99,,,-99.99,,2013-07-10 10:50:00,
2013-07-10 06:00:00,-999.0,-99.9,29.79,NNW,345,0.0,0.0,-999,-99.99,,,-99.99,,2013-07-10 11:00:00,
2013-07-10 06:11:00,74.0,72.0,29.79,NNW,345,0.0,0.0,94,0.00,,,0.10,,2013-07-10 11:11:00,
2013-07-10 06:23:00,74.0,72.0,29.79,NNW,327,0.0,2.0,95,0.00,,,0.10,,2013-07-10 11:23:00,
2013-07-10 06:33:00,75.0,73.0,29.79,NNW,327,0.0,0.0,95,0.00,,,0.10,,2013-07-10 11:33:00,
2013-07-10 06:43:00,75.0,73.0,29.79,NNW,327,0.0,0.0,95,0.00,,,0.10,,2013-07-10 11:43:00,
2013-07-10 06:52:00,75.0,73.0,29.81,South,185,1.0,3.0,95,0.00,,,0.10,,2013-07-10 11:52:00,
2013-07-10 07:02:00,75.0,73.0,29.81,NNW,334,0.0,4.0,95,0.00,,,0.09,,2013-07-10 12:02:00,
2013-07-10 07:11:00,75.0,73.0,29.81,NNW,334,0.0,4.0,95,0.00,,,0.09,,2013-07-10 12:11:00,
2013-07-10 07:22:00,76.0,74.0,29.82,South,180,0.0,2.0,95,0.00,,,0.09,,2013-07-10 12:22:00,
2013-07-10 07:33:00,76.0,74.0,29.81,NNW,330,1.0,3.0,94,0.00,,,0.09,,2013-07-10 12:33:00,
2013-07-10 07:43:00,76.0,74.0,29.81,NNW,330,1.0,3.0,94,0.00,,,0.09,,2013-07-10 12:43:00,
2013-07-10 07:53:00,77.0,75.0,29.83,NW,321,0.0,3.0,94,0.00,,,0.09,,2013-07-10 12:53:00,
2013-07-10 08:01:00,77.0,75.0,29.83,NW,321,0.0,3.0,93,0.00,,,0.09,,2013-07-10 13:01:00,
2013-07-10 08:11:00,77.0,75.0,29.83,NW,321,0.0,3.0,93,0.00,,,0.09,,2013-07-10 13:11:00,
2013-07-10 08:22:00,78.0,75.0,29.83,NW,321,0.0,1.0,91,0.00,,,0.09,,2013-07-10 13:22:00,
2013-07-10 08:32:00,79.0,76.0,29.83,NNW,334,1.0,5.0,90,0.00,,,0.09,,2013-07-10 13:32:00,
2013-07-10 08:43:00,79.0,76.0,29.83,NNW,334,1.0,5.0,90,0.00,,,0.09,,2013-07-10 13:43:00,
2013-07-10 08:52:00,79.0,75.0,29.83,WNW,286,1.0,4.0,87,0.00,,,0.09,,2013-07-10 13:52:00,
2013-07-10 09:01:00,80.0,75.0,29.82,NW,311,1.0,5.0,85,0.00,,,0.09,,2013-07-10 14:01:00,
2013-07-10 09:11:00,80.0,75.0,29.82,NW,311,1.0,5.0,85,0.00,,,0.09,,2013-07-10 14:11:00,
2013-07-10 09:22:00,80.0,74.0,29.82,SSE,151,1.0,6.0,82,0.00,,,0.09,,2013-07-10 14:22:00,
2013-07-10 09:33:00,81.0,73.0,29.82,NW,313,2.0,8.0,78,0.00,,,0.09,,2013-07-10 14:33:00,
2013-07-10 09:43:00,81.0,73.0,29.82,NW,313,2.0,8.0,78,0.00,,,0.09,,2013-07-10 14:43:00,
2013-07-10 09:53:00,81.0,72.0,29.83,NNW,329,1.0,6.0,75,0.00,,,0.09,,2013-07-10 14:53:00,
2013-07-10 10:01:00,81.0,72.0,29.84,NNW,346,2.0,6.0,74,0.00,,,0.09,,2013-07-10 15:01:00,
2013-07-10 10:11:00,81.0,72.0,29.84,NNW,346,2.0,6.0,74,0.00,,,0.09,,2013-07-10 15:11:00,
2013-07-10 10:22:00,82.0,73.0,29.85,NW,321,1.0,6.0,74,0.00,,,0.09,,2013-07-10 15:22:00,
2013-07-10 10:34:00,83.0,72.0,29.85,North,10,1.0,6.0,70,0.00,,,0.09,,2013-07-10 15:34:00,
2013-07-10 10:42:00,83.0,72.0,29.85,North,10,1.0,6.0,70,0.00,,,0.09,,2013-07-10 15:42:00,
2013-07-10 10:52:00,83.0,71.0,29.85,NNW,345,1.0,6.0,67,0.00,,,0.09,,2013-07-10 15:52:00,
2013-07-10 11:01:00,84.0,71.0,29.87,NNW,346,1.0,4.0,66,0.00,,,0.09,,2013-07-10 16:01:00,
2013-07-10 11:11:00,84.0,71.0,29.87,NNW,346,1.0,4.0,66,0.00,,,0.09,,2013-07-10 16:11:00,
2013-07-10 11:22:00,84.0,70.0,29.88,NNW,328,1.0,6.0,64,0.00,,,0.09,,2013-07-10 16:22:00,
2013-07-10 11:33:00,83.0,70.0,29.88,NNW,340,3.0,9.0,64,0.00,,,0.09,,2013-07-10 16:33:00,
2013-07-10 11:44:00,83.0,70.0,29.88,NNW,340,3.0,9.0,64,0.00,,,0.09,,2013-07-10 16:44:00,
2013-07-10 11:53:00,84.0,70.0,29.89,NNW,330,2.0,7.0,63,0.00,,,0.09,,2013-07-10 16:53:00,
2013-07-10 12:02:00,84.0,71.0,29.89,NNW,329,0.0,8.0,66,0.00,,,0.01,,2013-07-10 17:02:00,
2013-07-10 12:11:00,84.0,71.0,29.89,NNW,329,0.0,8.0,66,0.00,,,0.01,,2013-07-10 17:11:00,
2013-07-10 12:23:00,85.0,70.0,29.89,NNW,328,0.0,4.0,62,0.00,,,0.01,,2013-07-10 17:23:00,
2013-07-10 12:32:00,85.0,70.0,29.89,WNW,293,5.0,8.0,60,0.00,,,0.01,,2013-07-10 17:32:00,
2013-07-10 12:43:00,85.0,70.0,29.89,WNW,293,5.0,8.0,60,0.00,,,0.01,,2013-07-10 17:43:00,
2013-07-10 12:53:00,85.0,70.0,29.89,WNW,293,5.0,8.0,60,0.00,,,0.01,,2013-07-10 17:53:00,
2013-07-10 13:02:00,85.0,70.0,29.88,NW,306,3.0,10.0,61,0.00,,,0.00,,2013-07-10 18:02:00,
2013-07-10 13:11:00,85.0,70.0,29.88,NW,306,3.0,10.0,61,0.00,,,0.00,,2013-07-10 18:11:00,
2013-07-10 13:22:00,85.0,70.0,29.87,WNW,294,4.0,9.0,60,0.00,,,0.00,,2013-07-10 18:22:00,
2013-07-10 13:32:00,85.0,71.0,29.87,NNW,346,1.0,5.0,63,0.00,,,0.00,,2013-07-10 18:32:00,
2013-07-10 13:44:00,85.0,71.0,29.87,NNW,346,1.0,5.0,63,0.00,,,0.00,,2013-07-10 18:44:00,
2013-07-10 13:53:00,84.0,70.0,29.87,NNW,346,2.0,7.0,63,0.00,,,0.00,,2013-07-10 18:53:00,
2013-07-10 14:01:00,84.0,71.0,29.87,NW,311,4.0,9.0,66,0.00,,,0.00,,2013-07-10 19:01:00,
2013-07-10 14:11:00,84.0,71.0,29.87,NW,311,4.0,9.0,66,0.00,,,0.00,,2013-07-10 19:11:00,
2013-07-10 14:22:00,85.0,72.0,29.87,NW,326,3.0,8.0,65,0.00,,,0.00,,2013-07-10 19:22:00,
2013-07-10 14:32:00,84.0,70.0,29.87,NW,313,4.0,10.0,62,0.00,,,0.00,,2013-07-10 19:32:00,
2013-07-10 14:42:00,84.0,70.0,29.87,NW,313,4.0,10.0,62,0.00,,,0.00,,2013-07-10 19:42:00,
2013-07-10 14:53:00,85.0,70.0,29.86,NW,316,3.0,8.0,60,0.00,,,0.00,,2013-07-10 19:53:00,
2013-07-10 15:01:00,85.0,69.0,29.87,NW,311,4.0,8.0,59,0.00,,,0.00,,2013-07-10 20:01:00,
2013-07-10 15:11:00,85.0,69.0,29.87,NW,311,4.0,8.0,59,0.00,,,0.00,,2013-07-10 20:11:00,
2013-07-10 15:22:00,86.0,71.0,29.87,NW,317,2.0,8.0,61,0.00,,,0.00,,2013-07-10 20:22:00,
2013-07-10 15:32:00,85.0,70.0,29.86,NW,317,2.0,9.0,61,0.00,,,0.00,,2013-07-10 20:32:00,
2013-07-10 15:43:00,85.0,70.0,29.86,NW,317,2.0,9.0,61,0.00,,,0.00,,2013-07-10 20:43:00,
2013-07-10 15:52:00,86.0,68.0,29.86,NNW,340,6.0,13.0,56,0.00,,,0.00,,2013-07-10 20:52:00,
2013-07-10 16:01:00,84.0,68.0,29.86,NNW,340,4.0,11.0,58,0.00,,,0.00,,2013-07-10 21:01:00,
2013-07-10 16:11:00,84.0,68.0,29.86,NNW,340,4.0,11.0,58,0.00,,,0.00,,2013-07-10 21:11:00,
2013-07-10 16:22:00,85.0,68.0,29.85,WNW,282,3.0,8.0,57,0.00,,,0.00,,2013-07-10 21:22:00,
2013-07-10 16:32:00,85.0,69.0,29.85,NNW,337,3.0,9.0,58,0.00,,,0.00,,2013-07-10 21:32:00,
2013-07-10 16:41:00,85.0,69.0,29.85,NNW,337,3.0,9.0,58,0.00,,,0.00,,2013-07-10 21:41:00,
2013-07-10 16:52:00,85.0,69.0,29.85,NNW,338,2.0,6.0,59,0.00,,,0.00,,2013-07-10 21:52:00,
2013-07-10 17:01:00,84.0,69.0,29.85,NNW,340,1.0,9.0,60,0.00,,,0.00,,2013-07-10 22:01:00,
2013-07-10 17:11:00,84.0,69.0,29.85,NNW,340,1.0,9.0,60,0.00,,,0.00,,2013-07-10 22:11:00,
2013-07-10 17:21:00,84.0,69.0,29.85,NNW,342,1.0,8.0,60,0.00,,,0.00,,2013-07-10 22:21:00,
2013-07-10 17:33:00,84.0,69.0,29.85,NNW,342,4.0,11.0,60,0.00,,,0.00,,2013-07-10 22:33:00,
2013-07-10 17:42:00,84.0,69.0,29.85,NNW,342,4.0,11.0,60,0.00,,,0.00,,2013-07-10 22:42:00,
2013-07-10 17:53:00,84.0,68.0,29.85,NNW,338,1.0,6.0,59,0.00,,,0.00,,2013-07-10 22:53:00,
2013-07-10 18:01:00,83.0,68.0,29.85,NW,325,1.0,4.0,60,0.00,,,0.00,,2013-07-10 23:01:00,
2013-07-10 18:11:00,83.0,68.0,29.85,NW,325,1.0,4.0,60,0.00,,,0.00,,2013-07-10 23:11:00,
2013-07-10 18:22:00,83.0,68.0,29.85,NNW,327,1.0,11.0,60,0.00,,,0.00,,2013-07-10 23:22:00,
2013-07-10 18:32:00,82.0,67.0,29.85,NNW,346,1.0,6.0,60,0.00,,,0.00,,2013-07-10 23:32:00,
2013-07-10 18:43:00,82.0,67.0,29.85,NNW,346,1.0,6.0,60,0.00,,,0.00,,2013-07-10 23:43:00,
2013-07-10 18:52:00,81.0,67.0,29.86,NNW,332,1.0,6.0,62,0.00,,,0.00,,2013-07-10 23:52:00,
2013-07-10 19:01:00,79.0,65.0,29.87,South,190,1.0,4.0,63,0.00,,,0.00,,2013-07-11 00:01:00,
2013-07-10 19:11:00,79.0,65.0,29.87,South,190,1.0,4.0,63,0.00,,,0.00,,2013-07-11 00:11:00,
2013-07-10 19:22:00,79.0,64.0,29.87,SSE,153,1.0,4.0,61,0.00,,,0.00,,2013-07-11 00:22:00,
2013-07-10 19:32:00,79.0,64.0,29.87,SSE,153,1.0,4.0,61,0.00,,,0.00,,2013-07-11 00:32:00,
2013-07-10 19:42:00,79.0,65.0,29.87,WNW,288,1.0,3.0,62,0.00,,,0.00,,2013-07-11 00:42:00,
2013-07-10 19:52:00,79.0,65.0,29.88,NE,35,2.0,4.0,62,0.00,,,0.00,,2013-07-11 00:52:00,
2013-07-10 20:01:00,79.0,65.0,29.88,NE,35,2.0,4.0,62,0.00,,,0.00,,2013-07-11 01:01:00,
2013-07-10 20:11:00,77.0,63.0,29.88,North,11,0.0,3.0,62,0.00,,,0.00,,2013-07-11 01:11:00,
2013-07-10 20:22:00,77.0,63.0,29.88,North,11,0.0,3.0,62,0.00,,,0.00,,2013-07-11 01:22:00,
2013-07-10 20:32:00,74.0,62.0,29.89,NNE,25,1.0,4.0,67,0.00,,,0.00,,2013-07-11 01:32:00,
2013-07-10 20:43:00,74.0,62.0,29.89,NNE,25,1.0,4.0,67,0.00,,,0.00,,2013-07-11 01:43:00,
2013-07-10 20:52:00,73.0,63.0,29.89,NNE,24,2.0,4.0,72,0.00,,,0.00,,2013-07-11 01:52:00,
2013-07-10 21:02:00,71.0,63.0,29.91,NNE,27,0.0,3.0,76,0.00,,,0.00,,2013-07-11 02:02:00,
2013-07-10 21:11:00,71.0,63.0,29.91,NNE,27,0.0,3.0,76,0.00,,,0.00,,2013-07-11 02:11:00,
2013-07-10 21:22:00,71.0,64.0,29.91,NNE,28,0.0,3.0,78,0.00,,,0.00,,2013-07-11 02:22:00,
2013-07-10 21:32:00,70.0,62.0,29.92,NNE,28,1.0,3.0,77,0.00,,,0.00,,2013-07-11 02:32:00,
2013-07-10 21:43:00,70.0,62.0,29.92,NNE,28,1.0,3.0,77,0.00,,,0.00,,2013-07-11 02:43:00,
2013-07-10 21:53:00,70.0,62.0,29.93,NNE,24,2.0,4.0,75,0.00,,,0.00,,2013-07-11 02:53:00,
2013-07-10 22:02:00,70.0,62.0,29.93,NNE,22,2.0,4.0,75,0.00,,,0.00,,2013-07-11 03:02:00,
2013-07-10 22:11:00,70.0,62.0,29.93,NNE,22,2.0,4.0,75,0.00,,,0.00,,2013-07-11 03:11:00,
2013-07-10 22:22:00,70.0,62.0,29.94,NNE,23,1.0,3.0,75,0.00,,,0.00,,2013-07-11 03:22:00,
2013-07-10 22:33:00,70.0,62.0,29.94,NNE,23,0.0,2.0,76,0.00,,,0.00,,2013-07-11 03:33:00,
2013-07-10 22:42:00,70.0,62.0,29.94,NNE,23,0.0,2.0,76,0.00,,,0.00,,2013-07-11 03:42:00,
2013-07-10 22:53:00,69.0,61.0,29.95,NNE,23,0.0,1.0,77,0.00,,,0.00,,2013-07-11 03:53:00,
2013-07-10 23:01:00,69.0,61.0,29.95,NNE,23,0.0,1.0,77,0.00,,,0.00,,2013-07-11 04:01:00,
2013-07-10 23:12:00,69.0,61.0,29.95,NNE,23,0.0,0.0,76,0.00,,,0.00,,2013-07-11 04:12:00,
2013-07-10 23:22:00,69.0,61.0,29.95,NNE,23,0.0,0.0,77,0.00,,,0.00,,2013-07-11 04:22:00,
2013-07-10 23:32:00,68.0,61.0,29.96,NNE,23,0.0,0.0,77,0.00,,,0.00,,2013-07-11 04:32:00,
2013-07-10 23:42:00,68.0,61.0,29.96,NNE,23,0.0,0.0,77,0.00,,,0.00,,2013-07-11 04:42:00,
2013-07-10 23:53:00,68.0,62.0,29.96,NNE,23,0.0,0.0,81,0.00,,,0.00,,2013-07-11 04:53:00,